This is the latest recevied weather packets stored in our database for station/object IW9DKU-3. If no packets are shown the sender has not sent any weather packets the latest 10 day(s).
| Time | Temp. | Humidity | Pressure | Rain* | Wind** | Luminosity | Snow |
|---|---|---|---|---|---|---|---|
| 1778136974 | 20° C | 60% | 1022.4 hPa | - | - | - | - |
| 1778135771 | 20° C | 61% | 1022.2 hPa | - | - | - | - |
| 1778135154 | 19.44° C | 61% | 1022.1 hPa | - | - | - | - |
| 1778134567 | 19.44° C | 61% | 1022.1 hPa | - | - | - | - |
| 1778133363 | 19.44° C | 62% | 1022.3 hPa | - | - | - | - |
| 1778132159 | 19.44° C | 61% | 1022.4 hPa | - | - | - | - |
| 1778131910 | 19.44° C | 61% | 1021.9 hPa | - | - | - | - |
| 1778131910 | 19.44° C | 61% | 1021.8 hPa | - | - | - | - |
| 1778131909 | 19.44° C | 58% | 1021.5 hPa | - | - | - | - |
| 1778131909 | 19.44° C | 57% | 1021.6 hPa | - | - | - | - |
| 1778130955 | 19.44° C | 61% | 1021.9 hPa | - | - | - | - |
| 1778129752 | 19.44° C | 61% | 1021.8 hPa | - | - | - | - |
| 1778128548 | 19.44° C | 58% | 1021.5 hPa | - | - | - | - |
| 1778127344 | 19.44° C | 57% | 1021.6 hPa | - | - | - | - |
| 1778126140 | 19.44° C | 56% | 1021.6 hPa | - | - | - | - |
| 1778124937 | 19.44° C | 56% | 1021.9 hPa | - | - | - | - |
| 1778123733 | 19.44° C | 56% | 1021.9 hPa | - | - | - | - |
| 1778122529 | 19.44° C | 55% | 1021.8 hPa | - | - | - | - |
| 1778121325 | 19.44° C | 52% | 1021.6 hPa | - | - | - | - |
| 1778120122 | 19.44° C | 56% | 1021.4 hPa | - | - | - | - |
| 1778118918 | 19.44° C | 55% | 1021.4 hPa | - | - | - | - |
| 1778117714 | 19.44° C | 54% | 1021.8 hPa | - | - | - | - |
| 1778116511 | 19.44° C | 59% | 1021.9 hPa | - | - | - | - |
| 1778115307 | 19.44° C | 60% | 1021.8 hPa | - | - | - | - |
| 1778114103 | 19.44° C | 60% | 1021.9 hPa | - | - | - | - |
* Rain since midnight (hover to see other rain measurements)
** Current wind speed in m/s (hover to see current wind gust speed)